sim
Sign-in with your pilot id or email,
or register
Callsign
Passwort

Schedule Details

Flight Number: RYR2988
Departure: Nis Constantine the Great Airport (LYNI) at 15:05
Arrival: Bratislava M. R. Stefanik Airport (LZIB) at 16:20
Route: Ryanair Passenger Schedule. Enter filed route here before submitting Pirep.

Weather Information
Getting current METAR information for LYNI 280430Z 31014KT 280V340 9999 FEW017 SCT030 13/10 Q1021 NOSIG
Getting current METAR information for LZIB 280430Z 26006KT CAVOK 14/07 Q1025 NOSIG

Schedule Frequency

Route Map